CAPE-3 (47309 NORAD) Tracking and Keplerian Element Data

This shows tracking and keplerian element data for the satellite.

Feedback or suggestion? Click here.




ElementValue
Catalog47309
NameCAPE-3
Epoch Orbit1274
Epoch Day101.7748312
Epoch Year2021
RAAN181.1936
Inclination60.6811
Eccentricity0.0030699
Argument of Perigee4.8772
Mean Anonmoly355.2607
Mean Motion15.205203
Decay Rate9.07E-06
L11 47309U 21002A 21101.77483120 .00000907 00000-0 53050-4 0 9998
L22 47309 60.6811 181.1936 0030699 4.8772 355.2607 15.20520300 12741

Live tracking and technical data element details for CAPE-3 (NORAD 47309). CAPE-3 can be tracked NOW for your location showing map with azimuth and elevation plus other details from your city location.

Track the satellite on the map from your city or location and see movement details for azimuth, elevation, latitude, longitude, range, height, and movement on the map or in text.







IsCatalogInMostPopularTable: catalog: 47309, numindb: 23
Update: records affected: 1



GetName: 47309 CAPE-3

Hit Count: updated at: Tue, 13 Apr 2021 03:58:20 GMT